Location: Arroyo de San Miguel
(40.9167°N, 4.6667°W)
Time: 01:33:23
(UTC+00:00)

SL-16 R/B - Pass Details

Date: 19 May 2025
Orbit: 841 x 844 km, 71.0° (Epoch: 24 June)

Event Time Altitude Azimuth Distance (km) Brightness Sun altitude
Rises 22:42:14 0° 345° (NNW) 3,411 6.7 -25.4°
Reaches altitude 10° 22:45:03 10° 357° (N) 2,472 5.5 -25.6°
Maximum altitude 22:49:53 28° 55° (NE) 1,543 3.6 -26.0°
Enters shadow 22:51:16 25° 79° (E) 1,639 3.6 -26.1°
